Weather in Malyy Imysh

Russia / Krasnoyarsk Krai     55°13′10″N   90°31′30″E
temp.,
°C
wind,
m/s
gust,
m/s
humid.,
%
clouds,
%
prec.,
mm/h
press.,
hPa
HPBL,
m
17 january, mon
mon1701:00−11sse2392100 0.1 101998
04:00−9sse2993100 0.1 1018231
07:00−8se2594100 0.3 1017180
10:00−12s1197100 0.1 101914
13:00−8s2393100 0.1 1018102
16:00−8s2295100 0.0 101932
19:00−7sse1196100 0.0 102024
22:00−7s2295100 0.0 102138
18 january, tue
tue1801:00−7sw2297100 0.3 102227
04:00−10sw1198100 0.0 102410
07:00−12ssw0099100 0.0 10269
10:00−14wnw11100100 0.0 10289
13:00−7sw1192100 0.0 102754
16:00−8ssw1196100 0.0 102710
19:00−9ssw1197100 0.0 102810
22:00−10ssw1197100 0.0 102910
19 january, wed
wed1901:00−12n1196100 0.0 102910
04:00−14nne009595 0.0 10299
07:00−18n1110013 0.0 10309
10:00−19n1110069 0.0 10309
13:00−13ssw119868 0.0 102926
16:00−15se00987 0.0 10299
19:00−20wnw0010077 0.0 10309
22:00−21wsw1110099 0.0 10319
20 january, thu
thu2001:00−22sw1110099 0.0 10319
04:00−23sw11100100 0.0 10329
07:00−23s11100100 0.0 10329
10:00−23s00100100 0.0 103310
13:00−15s119885 0.1 103151
16:00−16se119842 0.0 10319
19:00−20se0010054 0.0 10329
22:00−22s0010055 0.0 10339
21 january, fri
fri2101:00−23s0010054 0.0 10349
04:00−22s1110097 0.0 10349
07:00−18s1199100 0.0 103328
10:00−19s119961 0.0 103312
13:00−15sse119658 0.0 103248
16:00−17ese119844 0.0 10329
19:00−21nnw1110050 0.0 10339
22:00−22nw1110059 0.0 10339